Change the Weather History Date:

Saturday, April 20, 2013

  Actual Average (KDBQ) Record (KDBQ)
Temperature  
Mean Temperature 36 °F 50 °F  
Max Temperature 42 °F 61 °F 86 °F (1987)
Min Temperature 30 °F 40 °F 26 °F (1956)
Degree Days  
Heating Degree Days 29 15  
Month to date heating degree days 377  
Since 1 July heating degree days 6688  
Cooling Degree Days 0 0  
Month to date cooling degree days 0  
Year to date cooling degree days 0  
Moisture  
Dew Point 23 °F    
Average Humidity 62    
Maximum Humidity 93    
Minimum Humidity 34    
Precipitation  
Precipitation 0.00 in 0.12 in 1.56 in (1893)
Month to date precipitation 2.34  
Year to date precipitation 7.36  
Snow  
Snow 0.00 in 0.10 in - ()
Month to date snowfall 1.7  
Since 1 July snowfall 41.6  
Snow Depth -    
Sea Level Pressure  
Sea Level Pressure 30.20 in    
Wind  
Wind Speed 4 mph (WSW)    
Max Wind Speed 9 mph    
Max Gust Speed 9 mph    
Visibility 10 miles    
Events      
T = Trace of Precipitation, MM = Missing Value Source: NWS Daily Summary

Daily Weather History Graph

Daily Weather History Graph

Search for Another Location

Airport or City:

Trip Planner

Search our weather history database for the weather conditions in past years. The results will help you decide how hot, cold, wet, or windy it might be!

Date:

Astronomy

Apr. 20, 2013 Rise Set
Actual Time 6:12 AM CDT 7:49 PM CDT
Civil Twilight 5:42 AM CDT 8:19 PM CDT
Nautical Twilight 5:06 AM CDT 8:56 PM CDT
Astronomical Twilight 4:27 AM CDT 9:34 PM CDT
Moon 2:27 PM CDT (4/20) 3:08 AM CDT (4/20)
Length of Visible Light 14h 37m
Length of Day
13h 37m
Waxing Gibbous, 71% of the Moon is Illuminated
Apr 20
Waxing Gibbous
Apr 25
Full
May 2
Last Quarter
May 9
New
May 17
First Quarter

Hourly Weather History & Observations

Time (CDT) Temp. Windchill Dew Point Humidity Pressure Visibility Wind Dir Wind Speed Gust Speed Precip Events Conditions
12:15 AM 32.0 °F 24.2 °F 26.6 °F 80% 29.97 in 10.0 mi West 9.2 mph - N/A   Overcast
12:35 AM 32.0 °F 25.6 °F 26.6 °F 80% 29.98 in 10.0 mi West 6.9 mph - N/A   Mostly Cloudy
12:55 AM 32.0 °F 25.6 °F 26.6 °F 80% 29.99 in 10.0 mi WNW 6.9 mph - N/A   Clear
1:15 AM 32.0 °F 25.6 °F 26.6 °F 80% 29.99 in 10.0 mi WNW 6.9 mph - N/A   Clear
1:35 AM 32.0 °F 26.4 °F 26.6 °F 80% 30.00 in 10.0 mi WNW 5.8 mph - N/A   Clear
1:55 AM 32.0 °F 26.4 °F 26.6 °F 80% 30.00 in 10.0 mi WNW 5.8 mph - N/A   Clear
2:15 AM 30.2 °F 25.4 °F 26.6 °F 86% 30.01 in 10.0 mi West 4.6 mph - N/A   Clear
2:35 AM 30.2 °F 25.4 °F 26.6 °F 86% 30.01 in 10.0 mi West 4.6 mph - N/A   Clear
2:55 AM 30.2 °F 25.4 °F 26.6 °F 86% 30.02 in 10.0 mi West 4.6 mph - N/A   Scattered Clouds
3:15 AM 30.2 °F 25.4 °F 26.6 °F 86% 30.03 in 10.0 mi West 4.6 mph - N/A   Scattered Clouds
3:35 AM 30.2 °F 26.7 °F 26.6 °F 86% 30.04 in 10.0 mi WSW 3.5 mph - N/A   Clear
3:55 AM 30.2 °F 25.4 °F 26.6 °F 86% 30.04 in 10.0 mi West 4.6 mph - N/A   Clear
4:15 AM 30.2 °F 26.7 °F 26.6 °F 86% 30.05 in 10.0 mi WNW 3.5 mph - N/A   Scattered Clouds
4:35 AM 30.2 °F - 26.6 °F 86% 30.06 in 10.0 mi Calm Calm - N/A   Scattered Clouds
4:55 AM 30.2 °F - 26.6 °F 86% 30.07 in 10.0 mi Calm Calm - N/A   Scattered Clouds
5:15 AM 30.2 °F 26.7 °F 26.6 °F 86% 30.07 in 10.0 mi WSW 3.5 mph - N/A   Mostly Cloudy
5:35 AM 30.2 °F - 26.6 °F 86% 30.08 in 10.0 mi Calm Calm - N/A   Overcast
5:55 AM 30.2 °F - 26.6 °F 86% 30.09 in 10.0 mi Calm Calm - N/A   Mostly Cloudy
6:15 AM 30.2 °F - 26.6 °F 86% 30.11 in 10.0 mi Calm Calm - N/A   Clear
6:35 AM 30.2 °F - 26.6 °F 86% 30.12 in 10.0 mi Calm Calm - N/A   Clear
6:55 AM 30.2 °F - 26.6 °F 86% 30.13 in 10.0 mi Calm Calm - N/A   Clear
7:15 AM 30.2 °F - 28.4 °F 93% 30.14 in 10.0 mi Calm Calm - N/A   Clear
7:35 AM 32.0 °F - 26.6 °F 80% 30.15 in 10.0 mi Calm Calm - N/A   Clear
7:55 AM 32.0 °F 28.7 °F 26.6 °F 80% 30.16 in 10.0 mi NNE 3.5 mph - N/A   Clear
8:15 AM 32.0 °F - 24.8 °F 75% 30.17 in 10.0 mi Calm Calm - N/A   Clear
8:35 AM 32.0 °F - 23.0 °F 69% 30.18 in 10.0 mi Calm Calm - N/A   Clear
8:55 AM 32.0 °F - 23.0 °F 69% 30.19 in 10.0 mi Calm Calm - N/A   Clear
9:15 AM 32.0 °F - 23.0 °F 69% 30.20 in 10.0 mi Calm Calm - N/A   Clear
9:35 AM 33.8 °F - 23.0 °F 65% 30.21 in 10.0 mi Calm Calm - N/A   Clear
9:55 AM 33.8 °F - 23.0 °F 65% 30.22 in 10.0 mi Calm Calm - N/A   Scattered Clouds
10:15 AM 35.6 °F - 21.2 °F 56% 30.23 in 10.0 mi Calm Calm - N/A   Mostly Cloudy
10:35 AM 33.8 °F 30.8 °F 23.0 °F 65% 30.24 in 10.0 mi SSW 3.5 mph - N/A   Mostly Cloudy
10:55 AM 35.6 °F 32.8 °F 19.4 °F 52% 30.25 in 10.0 mi WNW 3.5 mph - N/A   Mostly Cloudy
11:15 AM 37.4 °F 31.4 °F 23.0 °F 56% 30.25 in 10.0 mi WSW 8.1 mph - N/A   Overcast
11:35 AM 37.4 °F 32.8 °F 23.0 °F 56% 30.25 in 10.0 mi WSW 5.8 mph - N/A   Overcast
11:55 AM 37.4 °F 32.8 °F 21.2 °F 52% 30.26 in 10.0 mi West 5.8 mph - N/A   Mostly Cloudy
12:15 PM 37.4 °F 33.8 °F 21.2 °F 52% 30.25 in 10.0 mi SSW 4.6 mph - N/A   Mostly Cloudy
12:35 PM 37.4 °F 34.9 °F 21.2 °F 52% 30.26 in 10.0 mi SW 3.5 mph - N/A   Mostly Cloudy
12:55 PM 39.2 °F 35.9 °F 24.8 °F 56% 30.26 in 10.0 mi WNW 4.6 mph - N/A   Mostly Cloudy
1:15 PM 41.0 °F 35.8 °F 23.0 °F 49% 30.26 in 10.0 mi West 8.1 mph - N/A   Scattered Clouds
1:35 PM 41.0 °F 36.4 °F 23.0 °F 49% 30.26 in 10.0 mi WSW 6.9 mph - N/A   Scattered Clouds
1:55 PM 41.0 °F 37.1 °F 23.0 °F 49% 30.26 in 10.0 mi West 5.8 mph - N/A   Scattered Clouds
2:15 PM 41.0 °F 36.4 °F 23.0 °F 49% 30.27 in 10.0 mi West 6.9 mph - N/A   Scattered Clouds
2:35 PM 42.8 °F 38.6 °F 21.2 °F 42% 30.26 in 10.0 mi NW 6.9 mph - N/A   Mostly Cloudy
2:55 PM 42.8 °F 39.3 °F 23.0 °F 46% 30.27 in 10.0 mi WNW 5.8 mph - N/A   Scattered Clouds
3:15 PM 42.8 °F - 21.2 °F 42% 30.26 in 10.0 mi Calm Calm - N/A   Mostly Cloudy
3:35 PM 42.8 °F 41.1 °F 19.4 °F 39% 30.27 in 10.0 mi WNW 3.5 mph 9.2 mph N/A   Mostly Cloudy
3:55 PM 42.8 °F - 19.4 °F 39% 30.27 in 10.0 mi Calm Calm - N/A   Scattered Clouds
4:15 PM 42.8 °F 40.1 °F 19.4 °F 39% 30.28 in 10.0 mi WNW 4.6 mph - N/A   Scattered Clouds
4:35 PM 42.8 °F 41.1 °F 17.6 °F 36% 30.28 in 10.0 mi SSW 3.5 mph - N/A   Clear
4:55 PM 42.8 °F - 17.6 °F 36% 30.27 in 10.0 mi Calm Calm - N/A   Clear
5:15 PM 42.8 °F - 17.6 °F 36% 30.28 in 10.0 mi Calm Calm - N/A   Clear
5:35 PM 42.8 °F 41.1 °F 17.6 °F 36% 30.28 in 10.0 mi WNW 3.5 mph - N/A   Clear
5:55 PM 42.8 °F 41.1 °F 17.6 °F 36% 30.28 in 10.0 mi North 3.5 mph - N/A   Clear
6:15 PM 42.8 °F 41.1 °F 17.6 °F 36% 30.28 in 10.0 mi NW 3.5 mph - N/A   Clear
6:35 PM 42.8 °F - 15.8 °F 34% 30.28 in 10.0 mi Calm Calm - N/A   Clear
6:55 PM 42.8 °F 40.1 °F 17.6 °F 36% 30.28 in 10.0 mi East 4.6 mph - N/A   Clear
7:15 PM 42.8 °F 41.1 °F 19.4 °F 39% 30.29 in 10.0 mi SSE 3.5 mph - N/A   Clear
7:35 PM 41.0 °F 38.0 °F 23.0 °F 49% 30.30 in 10.0 mi SE 4.6 mph - N/A   Clear
7:55 PM 41.0 °F 37.1 °F 23.0 °F 49% 30.31 in 10.0 mi SE 5.8 mph - N/A   Clear
8:15 PM 39.2 °F 35.9 °F 23.0 °F 52% 30.32 in 10.0 mi SE 4.6 mph - N/A   Clear
8:35 PM 39.2 °F 35.9 °F 23.0 °F 52% 30.33 in 10.0 mi ESE 4.6 mph - N/A   Clear
8:55 PM 37.4 °F 32.8 °F 23.0 °F 56% 30.33 in 10.0 mi East 5.8 mph - N/A   Clear
9:15 PM 37.4 °F 32.1 °F 23.0 °F 56% 30.33 in 10.0 mi East 6.9 mph - N/A   Clear
9:35 PM 37.4 °F 32.8 °F 24.8 °F 60% 30.34 in 10.0 mi ESE 5.8 mph - N/A   Clear
9:55 PM 35.6 °F 30.7 °F 23.0 °F 60% 30.34 in 10.0 mi ESE 5.8 mph - N/A   Clear
10:15 PM 35.6 °F 30.7 °F 23.0 °F 60% 30.35 in 10.0 mi ESE 5.8 mph - N/A   Clear
10:35 PM 35.6 °F 29.9 °F 23.0 °F 60% 30.34 in 10.0 mi ESE 6.9 mph - N/A   Scattered Clouds
10:55 PM 35.6 °F 29.9 °F 23.0 °F 60% 30.35 in 10.0 mi ESE 6.9 mph - N/A   Scattered Clouds
11:15 PM 35.6 °F 29.2 °F 23.0 °F 60% 30.34 in 10.0 mi ESE 8.1 mph - N/A   Clear
11:35 PM 35.6 °F 29.9 °F 23.0 °F 60% 30.35 in 10.0 mi ESE 6.9 mph - N/A   Clear
11:55 PM 35.6 °F 29.9 °F 23.0 °F 60% 30.36 in 10.0 mi SE 6.9 mph - N/A   Clear